When you browse on this site, cookies collect data to enhance your experience and personalize the content and advertising you see.
Visit our Privacy Policy to learn more. By continuing to use the site, you agree to this use of cookies and data.
  • en France
  • Liste des pays
  • À 7 jours
  • Température de l'eau
  • Carte satellitaire
  • Carte météo
  • Widgets météo
  • user-avatar
    Se connecter

    Météo par heure à Gorenki

    Ce jour, 19 Février, Mardi

    Heure Température Précipitation Vent Pression Humidité
    00:00 -11°C° 0 mm 1 m/s 746 mmHg 93%
    01:00 -11°C° 0 mm 1 m/s 746 mmHg 92%
    02:00 -11°C° 0 mm 1 m/s 746 mmHg 92%
    03:00 -13°C° 0 mm 2 m/s 746 mmHg 91%
    04:00 -13°C° 0 mm 2 m/s 745 mmHg 90%
    05:00 -14°C° 0 mm 3 m/s 745 mmHg 90%
    06:00 -13°C° 0 mm 3 m/s 744 mmHg 90%
    07:00 -12°C° 0 mm 4 m/s 744 mmHg 88%
    08:00 -11°C° 0 mm 4 m/s 743 mmHg 86%
    09:00 -12°C° 0 mm 5 m/s 742 mmHg 84%
    10:00 -10°C° 0 mm 5 m/s 742 mmHg 80%
    11:00 -8°C° 0 mm 6 m/s 741 mmHg 76%
    12:00 -5°C° 0 mm 6 m/s 741 mmHg 72%
    13:00 -5°C° 0 mm 6 m/s 740 mmHg 72%
    14:00 -4°C° 0 mm 5 m/s 740 mmHg 72%
    15:00 -2°C° 0 mm 5 m/s 739 mmHg 72%
    16:00 -4°C° 0 mm 5 m/s 739 mmHg 74%
    17:00 -4°C° 0 mm 4 m/s 739 mmHg 77%
    18:00 -5°C° 0 mm 4 m/s 738 mmHg 80%
    19:00 -5°C° 0 mm 4 m/s 738 mmHg 81%
    20:00 -5°C° 0 mm 4 m/s 737 mmHg 81%
    21:00 -7°C° 0 mm 4 m/s 737 mmHg 82%
    22:00 -7°C° 0 mm 4 m/s 736 mmHg 83%
    23:00 -7°C° 0 mm 4 m/s 736 mmHg 85%

    Demain, 20 Février, Mercredi

    Heure Température Précipitation Vent Pression Humidité
    00:00 -7°C° 0 mm 4 m/s 735 mmHg 86%
    01:00 -6°C° 0 mm 5 m/s 735 mmHg 87%
    02:00 -5°C° 0 mm 5 m/s 734 mmHg 88%
    03:00 -5°C° 0 mm 5 m/s 734 mmHg 89%
    04:00 -5°C° 0.1 mm 5 m/s 733 mmHg 89%
    05:00 -4°C° 0.1 mm 5 m/s 732 mmHg 88%
    06:00 -4°C° 0.1 mm 5 m/s 731 mmHg 88%
    07:00 -4°C° 0.1 mm 5 m/s 731 mmHg 88%
    08:00 -2°C° 0.1 mm 5 m/s 731 mmHg 88%
    09:00 -2°C° 0.1 mm 5 m/s 731 mmHg 88%
    10:00 -1°C° 0.1 mm 5 m/s 730 mmHg 90%
    11:00 -1°C° 0.1 mm 5 m/s 730 mmHg 91%
    12:00 0°C° 0.1 mm 5 m/s 730 mmHg 93%
    13:00 0°C° 0 mm 5 m/s 730 mmHg 93%
    14:00 0°C° 0 mm 5 m/s 730 mmHg 93%
    15:00 0°C° 0 mm 5 m/s 730 mmHg 93%
    16:00 0°C° 0.1 mm 4 m/s 730 mmHg 93%
    17:00 -1°C° 0.1 mm 4 m/s 730 mmHg 93%
    18:00 0°C° 0.1 mm 3 m/s 730 mmHg 93%
    19:00 -1°C° 0.1 mm 4 m/s 730 mmHg 93%
    20:00 -1°C° 0.1 mm 4 m/s 729 mmHg 93%
    21:00 -1°C° 0.1 mm 4 m/s 729 mmHg 93%
    22:00 -1°C° 0.1 mm 4 m/s 729 mmHg 93%
    23:00 -1°C° 0.1 mm 4 m/s 729 mmHg 92%

    Après-demain, 21 Février, Jeudi

    Heure Température Précipitation Vent Pression Humidité
    00:00 -1°C° 0.1 mm 4 m/s 728 mmHg 92%
    01:00 -2°C° 0.1 mm 4 m/s 728 mmHg 92%
    02:00 -2°C° 0.1 mm 4 m/s 728 mmHg 92%
    03:00 -1°C° 0.1 mm 3 m/s 728 mmHg 93%
    04:00 -1°C° 0.5 mm 3 m/s 727 mmHg 93%
    05:00 -1°C° 0.5 mm 3 m/s 727 mmHg 94%
    06:00 -1°C° 0.5 mm 3 m/s 727 mmHg 95%
    07:00 -2°C° 0.4 mm 3 m/s 727 mmHg 94%
    08:00 -2°C° 0.4 mm 3 m/s 727 mmHg 94%
    09:00 -4°C° 0.4 mm 4 m/s 727 mmHg 93%
    10:00 -3°C° 0.1 mm 4 m/s 727 mmHg 91%
    11:00 -2°C° 0.1 mm 3 m/s 728 mmHg 90%
    12:00 -1°C° 0.1 mm 3 m/s 728 mmHg 89%
    13:00 -2°C° 0.1 mm 4 m/s 728 mmHg 89%
    14:00 -2°C° 0.1 mm 4 m/s 728 mmHg 89%
    15:00 -2°C° 0.1 mm 5 m/s 729 mmHg 89%
    16:00 -4°C° 0.1 mm 5 m/s 729 mmHg 90%
    17:00 -5°C° 0.1 mm 5 m/s 730 mmHg 91%
    18:00 -5°C° 0.1 mm 5 m/s 730 mmHg 91%
    19:00 -8°C° 0.2 mm 6 m/s 731 mmHg 90%
    20:00 -9°C° 0.2 mm 7 m/s 732 mmHg 88%
    21:00 -11°C° 0.2 mm 7 m/s 733 mmHg 87%
    22:00 -12°C° 0.1 mm 7 m/s 734 mmHg 85%
    23:00 -13°C° 0.1 mm 7 m/s 734 mmHg 84%

    22 Février, Vendredi

    Heure Température Précipitation Vent Pression Humidité
    00:00 -14°C° 0.1 mm 7 m/s 735 mmHg 83%
    01:00 -14°C° 0.1 mm 7 m/s 736 mmHg 82%
    02:00 -14°C° 0.1 mm 7 m/s 737 mmHg 81%
    03:00 -15°C° 0.1 mm 7 m/s 738 mmHg 80%
    04:00 -17°C° 0 mm 7 m/s 738 mmHg 80%
    05:00 -17°C° 0 mm 8 m/s 739 mmHg 79%
    06:00 -18°C° 0 mm 8 m/s 740 mmHg 79%
    07:00 -18°C° 0 mm 8 m/s 740 mmHg 78%
    08:00 -18°C° 0 mm 8 m/s 741 mmHg 77%
    09:00 -18°C° 0 mm 8 m/s 741 mmHg 76%
    10:00 -17°C° 0 mm 8 m/s 742 mmHg 74%
    11:00 -16°C° 0 mm 8 m/s 742 mmHg 73%
    12:00 -16°C° 0 mm 9 m/s 742 mmHg 72%
    13:00 -15°C° 0 mm 9 m/s 742 mmHg 72%
    14:00 -15°C° 0 mm 8 m/s 743 mmHg 72%
    15:00 -15°C° 0 mm 8 m/s 743 mmHg 72%
    16:00 -16°C° 0.1 mm 8 m/s 743 mmHg 74%
    17:00 -16°C° 0.1 mm 8 m/s 744 mmHg 76%
    18:00 -15°C° 0.1 mm 7 m/s 744 mmHg 78%
    19:00 -17°C° 0.1 mm 7 m/s 745 mmHg 78%
    20:00 -17°C° 0.1 mm 7 m/s 746 mmHg 79%
    21:00 -17°C° 0.1 mm 7 m/s 746 mmHg 79%
    22:00 -16°C° 0 mm 6 m/s 746 mmHg 80%
    23:00 -17°C° 0 mm 6 m/s 747 mmHg 81%

    23 Février, Samedi

    Heure Température Précipitation Vent Pression Humidité
    00:00 -17°C° 0 mm 5 m/s 747 mmHg 82%
    01:00 -17°C° 0 mm 5 m/s 748 mmHg 83%
    02:00 -17°C° 0 mm 5 m/s 748 mmHg 83%
    03:00 -17°C° 0 mm 5 m/s 749 mmHg 84%
    04:00 -18°C° 0 mm 5 m/s 749 mmHg 85%
    05:00 -18°C° 0 mm 5 m/s 749 mmHg 86%
    06:00 -18°C° 0 mm 5 m/s 749 mmHg 86%
    07:00 -18°C° 0 mm 5 m/s 750 mmHg 86%
    08:00 -17°C° 0 mm 4 m/s 750 mmHg 86%
    09:00 -18°C° 0 mm 4 m/s 750 mmHg 86%
    10:00 -17°C° 0 mm 4 m/s 750 mmHg 84%
    11:00 -16°C° 0 mm 4 m/s 751 mmHg 82%
    12:00 -15°C° 0 mm 4 m/s 751 mmHg 80%
    13:00 -15°C° 0 mm 4 m/s 751 mmHg 78%
    14:00 -14°C° 0 mm 4 m/s 751 mmHg 77%
    15:00 -14°C° 0 mm 4 m/s 751 mmHg 76%
    16:00 -14°C° 0 mm 4 m/s 751 mmHg 79%
    17:00 -14°C° 0 mm 3 m/s 751 mmHg 82%
    18:00 -15°C° 0 mm 3 m/s 752 mmHg 86%
    19:00 -16°C° 0 mm 3 m/s 752 mmHg 87%
    20:00 -15°C° 0 mm 2 m/s 753 mmHg 89%
    21:00 -16°C° 0 mm 2 m/s 753 mmHg 91%
    22:00 -16°C° 0 mm 2 m/s 753 mmHg 92%
    23:00 -16°C° 0 mm 2 m/s 754 mmHg 92%

    24 Février, Dimanche

    Heure Température Précipitation Vent Pression Humidité
    00:00 -17°C° 0 mm 2 m/s 754 mmHg 93%
    01:00 -17°C° 0 mm 2 m/s 755 mmHg 93%
    02:00 -17°C° 0 mm 2 m/s 755 mmHg 93%
    03:00 -15°C° 0 mm 1 m/s 755 mmHg 93%
    04:00 -15°C° 0 mm 1 m/s 755 mmHg 93%
    05:00 -15°C° 0 mm 1 m/s 755 mmHg 93%
    06:00 -15°C° 0 mm 1 m/s 755 mmHg 93%
    07:00 -14°C° 0 mm 1 m/s 756 mmHg 92%
    08:00 -14°C° 0 mm 1 m/s 756 mmHg 91%
    09:00 -13°C° 0 mm 1 m/s 756 mmHg 90%
    10:00 -11°C° 0 mm 1 m/s 757 mmHg 85%
    11:00 -9°C° 0 mm 1 m/s 757 mmHg 80%
    12:00 -7°C° 0 mm 1 m/s 757 mmHg 75%
    13:00 -7°C° 0 mm 1 m/s 756 mmHg 74%
    14:00 -7°C° 0 mm 2 m/s 756 mmHg 74%
    15:00 -6°C° 0 mm 2 m/s 755 mmHg 74%
    16:00 -8°C° 0 mm 2 m/s 755 mmHg 79%
    17:00 -9°C° 0 mm 2 m/s 754 mmHg 83%
    18:00 -10°C° 0 mm 2 m/s 754 mmHg 88%
    19:00 -10°C° 0 mm 2 m/s 753 mmHg 87%
    20:00 -12°C° 0 mm 3 m/s 752 mmHg 86%
    21:00 -13°C° 0 mm 3 m/s 752 mmHg 86%
    22:00 -13°C° 0 mm 3 m/s 751 mmHg 84%
    23:00 -12°C° 0 mm 4 m/s 750 mmHg 83%
    Voir plus